Location: Newark
(43.0000°N, 1.6781°W)
Time: 17:59:19
(UTC+00:00)

FO-29 - Visible Passes

Search period start: 30 November 2022 00:00
Search period end: 10 December 2022 00:00
Orbit: 800 x 1321 km, 98.5° (Epoch: 29 November)

Date Brightness Start Highest point End Pass type
(mag) Time Alt. Az. Time Alt. Az. Time Alt. Az.
30 Nov 10.5 05:41:40 10° NNE 05:48:02 50° E 05:53:39 10° S visible
30 Nov 10.7 17:36:32 10° S 17:44:19 64° W 17:51:59 10° NNW visible
30 Nov 13.0 19:27:59 10° WSW 19:30:35 12° W 19:33:10 10° WNW visible
01 Dec 12.1 04:48:01 10° NE 04:52:14 18° E 04:56:09 10° SE visible
01 Dec 9.5 06:31:35 10° N 06:38:07 69° WNW 06:43:51 10° SSW visible
01 Dec 12.0 18:28:00 10° SSW 18:34:42 30° W 18:41:19 10° NNW visible
02 Dec 10.6 05:36:45 10° NNE 05:42:54 46° E 05:48:21 10° S visible
02 Dec 10.6 17:31:31 10° S 17:39:21 68° WSW 17:46:58 10° NNW visible
02 Dec 12.9 19:22:20 10° WSW 19:25:30 13° W 19:28:39 10° WNW visible
03 Dec 12.2 04:43:19 10° NE 04:47:04 16° E 04:50:35 10° SE visible
03 Dec 9.4 06:26:36 10° N 06:33:03 74° WNW 06:38:41 10° SSW visible
03 Dec 11.9 18:22:50 10° SSW 18:29:41 32° W 18:36:23 10° NNW visible
04 Dec 10.7 05:31:49 10° NNE 05:37:46 42° E 05:43:03 10° SSE visible
04 Dec 10.5 17:26:31 10° S 17:34:23 72° WSW 17:41:57 10° NNW visible
04 Dec 12.8 19:16:48 10° WSW 19:20:26 14° W 19:24:01 10° WNW visible
05 Dec 12.3 04:38:39 10° NE 04:41:53 15° E 04:44:57 10° ESE visible
05 Dec 9.4 06:21:36 10° NNE 06:27:56 79° WNW 06:33:31 10° SSW visible
05 Dec 11.8 18:17:43 10° SSW 18:24:40 34° W 18:31:24 10° NNW visible
06 Dec 10.9 05:26:54 10° NNE 05:32:36 38° E 05:37:44 10° SSE visible
06 Dec 10.4 17:21:32 10° S 17:29:24 76° WSW 17:36:54 10° NNW visible
06 Dec 12.8 19:11:22 10° WSW 19:15:22 15° W 19:19:18 10° NW visible
07 Dec 12.4 04:34:04 10° ENE 04:36:41 13° E 04:39:11 10° ESE visible
07 Dec 9.4 06:16:36 10° NNE 06:22:49 85° WNW 06:28:19 10° SSW visible
07 Dec 11.7 18:12:36 10° SSW 18:19:39 36° W 18:26:26 10° NNW visible
08 Dec 11.0 05:21:58 10° NNE 05:27:26 35° E 05:32:24 10° SSE visible
08 Dec 10.3 17:16:34 10° S 17:24:26 80° WSW 17:31:50 10° NNW visible
08 Dec 12.7 19:05:59 10° WSW 19:10:18 16° W 19:14:31 10° NW visible
09 Dec 12.4 04:29:41 10° ENE 04:31:29 11° E 04:33:14 10° ESE visible
09 Dec 9.4 06:11:36 10° NNE 06:17:42 89° ESE 06:23:08 10° SSW visible
09 Dec 11.5 18:07:32 10° SSW 18:14:39 38° W 18:21:25 10° NNW visible
